Location: Grust
(42.8833°N, 0.0333°W)
Time: 14:45:46
(UTC+00:00)

Cosmos 1400 Rocket - Pass Details

Date: 25 October 2020
Orbit: 521 x 568 km, 81.2° (Epoch: 24 November)

Event Time Altitude Azimuth Distance (km) Brightness Sun altitude
Rises 17:29:25 0° 155° (SSE) 2,755 6.3 -5.8°
Reaches altitude 10° 17:31:59 10° 140° (SE) 1,861 5.2 -6.2°
Maximum altitude 17:35:07 21° 90° (E) 1,283 4.1 -6.8°
Drops below altitude 10° 17:38:15 10° 40° (NE) 1,862 5.1 -7.4°
Sets 17:40:48 0° 25° (NNE) 2,757 6.1 -7.8°
